{"data":{"norad_id":68691,"epoch":"2026-09-20T04:21:13.418784Z","epoch_age_seconds":90781,"freshness":"FRESH","line1":"1 68691U 26080A   26263.18140531  .00002673  00000+0  17634-3 0  9999","line2":"2 68691  97.6544 338.5029 0012589 103.9569 256.3060 15.08266318 23989","mean_motion":15.08266318,"eccentricity":0.0012589,"inclination_deg":97.6544,"raan_deg":338.5029,"arg_perigee_deg":103.9569,"mean_anomaly_deg":256.306,"bstar":0.00017634,"rev_number":2398,"period_min":95.473855168328,"perigee_km":532.78633329065,"apogee_km":550.20858893684,"semimajor_km":6919.6344611137,"source":"CELESTRAK","updated_at":"2026-09-20T09:00:24.408144Z"}}